[[{"header":{"parameterUnit":"m.s-1","parameterCategory":1,"la1":30.2991,"la2":30.254,"lo1":-89.0895,"lo2":-89.0444,"dy":0.0017,"dx":0.0017,"nx":28,"ny":28,"refTime":"2025-07-16T09:00:00:Z","depth":0,"parameterNumber":2,"parameterNumberName":"U-component_of_WINDS"},"data":[0,0,0,0,0,0,0,0,0,0,0,0,0,0,0,0,0,0,0,0,0,0,0,0,0,0,0,0,0,0,0,0,0,0,0,0,0,0,0,0,0,0,0,0,0,0,0,0,0,0,0,0,0,0,0,0,0,0,2.3793,2.3793,0,2.3856,2.3857,2.3858,2.3867,2.3867,2.3866,2.3865,2.3932,2.3935,2.3937,0,0,0,0,0,0,0,0,0,0,0,0,0,2.3681,2.3683,2.3792,2.3793,2.3794,2.3856,2.3857,2.3858,2.3867,2.3866,2.3866,2.3865,2.3932,2.3934,2.3937,0,0,0,0,0,0,0,0,0,0,0,0,0,2.3735,2.3683,2.3792,2.3806,2.3808,2.3856,2.3857,2.3858,2.3867,2.3866,2.3866,2.3865,2.3931,2.3934,2.3938,2.3977,0,0,2.3948,2.395,0,0,0,0,0,0,0,0,2.3732,2.3739,2.3803,2.3805,2.3807,2.3853,2.3842,2.3898,2.3868,2.3845,2.3865,2.3864,2.3907,2.3912,2.3926,2.398,2.3983,2.3949,2.3951,2.3952,2.3953,0,0,0,0,0,0,0,2.3728,2.3737,2.3818,2.3804,2.3807,2.381,2.3817,2.3853,2.388,2.3847,2.3848,2.3855,2.3908,2.3923,2.3928,2.3984,2.3948,2.3952,2.3954,2.3955,2.4073,2.4074,0,0,0,0,0,0,2.3722,2.3733,2.3816,2.382,2.3767,2.3812,2.382,2.3839,2.388,2.3885,2.3856,2.3855,2.3917,2.3924,2.393,2.3978,2.3952,2.3955,2.3957,2.4072,2.4073,2.4074,0,0,0,0,0,0,2.3719,2.3729,2.3813,2.3777,2.3788,2.3815,2.3837,2.3841,2.3856,2.3886,2.3891,2.3866,2.3917,2.3925,2.3965,2.3981,2.3957,2.396,2.4071,2.4072,2.4074,2.4075,0,0,0,0,0,0,2.3716,2.3728,2.3743,2.3777,2.379,2.3846,2.3838,2.3843,2.3862,2.3862,2.3897,2.3902,2.3917,2.396,2.3968,2.3985,2.3963,2.4069,2.4072,2.4073,2.4074,2.4076,2.4079,0,0,0,0,0,2.3712,2.3741,2.3743,2.3753,2.3808,2.3847,2.3854,2.387,2.3863,2.3878,2.3898,2.3901,2.3978,2.3964,2.3974,2.3992,2.4069,2.4071,2.4073,2.4072,2.4076,2.4079,0,0,0,0,0,0,2.3708,2.3746,2.3749,2.3789,2.3815,2.3848,2.3868,2.3873,2.3901,2.39,2.3919,2.3927,2.3966,2.3983,2.3966,2.4032,2.4023,2.4027,2.4019,2.4022,2.4025,2.4019,2.3966,0,0,0,0,0,2.3712,2.374,2.3771,2.3804,2.3817,2.384,2.3858,2.3867,2.3895,2.3906,2.3928,2.3955,2.3986,2.4005,2.4035,2.4077,2.4085,2.4094,2.4097,2.4099,2.4102,2.4125,2.413,2.4082,2.4082,2.4082,0,0,2.372,2.3744,2.376,2.3804,2.3825,2.3853,2.3849,2.388,2.3901,2.3911,2.3949,2.3967,2.3998,2.4039,2.4059,2.4055,2.4117,2.4102,2.4103,2.4105,2.4128,2.4133,2.4137,2.4084,2.4083,2.4083,0,0,2.3749,2.377,2.38,2.3821,2.3852,2.3868,2.3875,2.3908,2.392,2.3959,2.3967,2.3993,2.4045,2.4067,2.4085,2.4123,2.4128,2.4133,2.4146,2.4168,2.4172,2.4175,2.4189,2.4193,2.4136,2.4136,2.4136,0,2.3755,2.3798,2.3814,2.3844,2.3863,2.3873,2.3903,2.3923,2.3963,2.3976,2.3971,2.4037,2.4059,2.4105,2.4114,2.4129,2.4138,2.4128,2.417,2.4174,2.4177,2.419,2.4195,2.4137,2.4137,2.4136,2.4136,0,2.3804,2.3834,2.3854,2.3891,2.3913,2.3943,2.3964,2.3984,2.3992,2.4009,2.4049,2.4075,2.411,2.4123,2.4131,2.417,2.4167,2.4166,2.4157,2.4182,2.4194,2.4199,2.4137,2.4137,2.4137,2.4137,0,0,2.3831,2.3877,2.3884,2.3902,2.3937,2.3961,2.3992,2.4026,2.4042,2.407,2.4097,2.4141,2.414,2.4161,2.4172,2.4192,2.4221,2.4189,2.419,2.4193,2.4265,2.4265,2.427,2.4224,2.4225,2.4226,2.4262,0,2.3864,2.3918,2.3934,2.398,2.4007,2.4017,2.4045,2.407,2.4086,2.4113,2.4132,2.4162,2.4159,2.4172,2.4192,2.4213,2.4235,2.4211,2.4249,2.425,2.424,2.4277,2.4276,2.4309,2.4267,2.4268,2.4269,0,2.3909,2.3936,2.3985,2.4017,2.4029,2.4053,2.4086,2.4111,2.414,2.4151,2.4174,2.4184,2.4217,2.4208,2.4254,2.4237,2.4254,2.4267,2.4269,2.4272,2.426,2.428,2.432,2.4324,2.4277,2.4276,2.4275,0,2.3923,2.3973,2.4008,2.4022,2.4061,2.4078,2.4095,2.4123,2.4143,2.4171,2.4184,2.4217,2.4235,2.426,2.4279,2.427,2.4324,2.4316,2.4334,2.4334,2.4344,2.4343,2.4386,2.4357,2.4357,2.4357,2.4356,0,2.3957,2.3986,2.4014,2.4036,2.4069,2.4088,2.412,2.4138,2.4163,2.4189,2.4201,2.4225,2.4249,2.4277,2.4292,2.4328,2.4336,2.4346,2.435,2.4344,2.4343,2.4355,2.4353,2.4358,2.4358,2.4357,2.4357,0,2.3978,2.3998,2.4037,2.4071,2.408,2.4103,2.4132,2.4154,2.4171,2.4203,2.4212,2.4239,2.4273,2.4294,2.4337,2.4347,2.4387,2.439,2.4376,2.4378,2.4394,2.4392,2.4446,2.4454,2.442,2.442,2.442,0,2.3998,2.402,2.4056,2.4074,2.4091,2.4119,2.4139,2.4159,2.4179,2.4214,2.4232,2.4266,2.4293,2.4346,2.4371,2.4404,2.4407,2.4424,2.4412,2.4406,2.4407,2.4405,2.4407,2.4425,2.4426,2.4426,2.4426,0,2.4031,2.404,2.4067,2.4098,2.4121,2.4147,2.4173,2.4187,2.4211,2.4233,2.4267,2.4288,2.4332,2.4365,2.4401,2.4419,2.4427,2.443,2.4435,2.443,2.442,2.4425,2.438,2.4428,2.4428,2.4428,2.4428,2.4428,2.4052,2.4072,2.41,2.413,2.4152,2.4175,2.4197,2.4217,2.4245,2.4281,2.4292,2.4327,2.4356,2.4404,2.4424,2.4452,2.445,2.4459,2.4461,2.4462,2.4462,2.4417,2.4459,2.4459,2.4459,2.4459,2.4459,0,2.4085,2.4103,2.4131,2.4166,2.419,2.4195,2.4224,2.4243,2.4274,2.43,2.4327,2.4366,2.4399,2.4426,2.446,2.4478,2.4482,2.4486,2.4484,2.4489,2.4462,2.4453,2.4482,2.4482,2.4482,2.4482,2.4482,2.4482,2.4104,2.4139,2.4151,2.4196,2.4215,2.4249,2.4265,2.4287,2.4308,2.4351,2.4378,2.4395,2.4422,2.4458,2.4489,2.4496,2.4508,2.4511,2.4519,2.4493,2.4491,2.4488,2.448,2.4513,2.4513,2.4543,2.4543,2.4543]},{"header":{"parameterUnit":"m.s-1","parameterCategory":1,"la1":30.2991,"la2":30.254,"lo1":-89.0895,"lo2":-89.0444,"dy":0.0017,"dx":0.0017,"nx":28,"ny":28,"refTime":"2025-07-16T09:00:00:Z","depth":0,"parameterNumber":3,"parameterNumberName":"V-component_of_WINDS"},"data":[0,0,0,0,0,0,0,0,0,0,0,0,0,0,0,0,0,0,0,0,0,0,0,0,0,0,0,0,0,0,0,0,0,0,0,0,0,0,0,0,0,0,0,0,0,0,0,0,0,0,0,0,0,0,0,0,0,0,-2.6449,-2.6449,0,-2.648,-2.6481,-2.6481,-2.6448,-2.6446,-2.6445,-2.6444,-2.6474,-2.6476,-2.6478,0,0,0,0,0,0,0,0,0,0,0,0,0,-2.6357,-2.6359,-2.6449,-2.6449,-2.645,-2.648,-2.6481,-2.6481,-2.6448,-2.6446,-2.6445,-2.6443,-2.6473,-2.6476,-2.6478,0,0,0,0,0,0,0,0,0,0,0,0,0,-2.6394,-2.636,-2.6449,-2.6437,-2.6436,-2.648,-2.6481,-2.6481,-2.6448,-2.6446,-2.6444,-2.6443,-2.6473,-2.6475,-2.6478,-2.6535,0,0,-2.6488,-2.6489,0,0,0,0,0,0,0,0,-2.6391,-2.6397,-2.6438,-2.6438,-2.6437,-2.6458,-2.6459,-2.6499,-2.6449,-2.6443,-2.6444,-2.6442,-2.647,-2.6473,-2.6483,-2.6537,-2.6538,-2.6488,-2.649,-2.6491,-2.6492,0,0,0,0,0,0,0,-2.6389,-2.6395,-2.6461,-2.6439,-2.6438,-2.6429,-2.6432,-2.6467,-2.6467,-2.6444,-2.6441,-2.6446,-2.6469,-2.648,-2.6484,-2.6538,-2.6488,-2.649,-2.6492,-2.6493,-2.6639,-2.6641,0,0,0,0,0,0,-2.6388,-2.6393,-2.646,-2.6462,-2.6409,-2.6432,-2.6435,-2.6453,-2.6467,-2.6467,-2.6447,-2.6444,-2.6476,-2.648,-2.6485,-2.6551,-2.6491,-2.6494,-2.6495,-2.6637,-2.6639,-2.6642,0,0,0,0,0,0,-2.6386,-2.6394,-2.6459,-2.6427,-2.6435,-2.6436,-2.6456,-2.6455,-2.6466,-2.6469,-2.6469,-2.6459,-2.6475,-2.648,-2.6523,-2.6552,-2.6495,-2.6498,-2.6634,-2.6638,-2.6641,-2.6686,0,0,0,0,0,0,-2.6384,-2.6394,-2.6416,-2.6428,-2.6437,-2.6498,-2.6458,-2.6457,-2.6471,-2.6467,-2.648,-2.648,-2.6474,-2.6519,-2.6526,-2.6555,-2.65,-2.6632,-2.6636,-2.664,-2.6682,-2.669,-2.6698,0,0,0,0,0,-2.6381,-2.6428,-2.6418,-2.6426,-2.6465,-2.6499,-2.6504,-2.6496,-2.6474,-2.6496,-2.6498,-2.648,-2.6548,-2.6523,-2.6531,-2.6562,-2.663,-2.6635,-2.6639,-2.6678,-2.6689,-2.6697,0,0,0,0,0,0,-2.6419,-2.6429,-2.6418,-2.647,-2.6484,-2.6494,-2.6521,-2.6508,-2.6528,-2.6523,-2.6512,-2.6515,-2.656,-2.6565,-2.6538,-2.6617,-2.6585,-2.6591,-2.6612,-2.6622,-2.663,-2.6627,-2.6503,0,0,0,0,0,-2.6434,-2.6462,-2.6469,-2.6514,-2.6522,-2.652,-2.6535,-2.6528,-2.6542,-2.6547,-2.6552,-2.6566,-2.659,-2.6606,-2.6629,-2.6682,-2.6684,-2.6707,-2.6715,-2.6721,-2.6727,-2.6755,-2.6765,-2.6657,-2.6657,-2.6657,0,0,-2.6464,-2.6473,-2.6491,-2.6522,-2.6532,-2.656,-2.6526,-2.6557,-2.6578,-2.6552,-2.6592,-2.6597,-2.6611,-2.6659,-2.668,-2.6664,-2.6757,-2.6727,-2.6732,-2.6735,-2.6761,-2.6771,-2.678,-2.666,-2.666,-2.6659,0,0,-2.6534,-2.6544,-2.6583,-2.6593,-2.6609,-2.6607,-2.6617,-2.6628,-2.663,-2.667,-2.6651,-2.6675,-2.6717,-2.6728,-2.6739,-2.6812,-2.6796,-2.6819,-2.686,-2.6887,-2.6896,-2.6903,-2.6929,-2.6938,-2.6825,-2.6825,-2.6825,0,-2.657,-2.6613,-2.6604,-2.6637,-2.6651,-2.6629,-2.6667,-2.6677,-2.6699,-2.6709,-2.6691,-2.6743,-2.6751,-2.6801,-2.6818,-2.6828,-2.6838,-2.6818,-2.6895,-2.6903,-2.691,-2.6934,-2.6943,-2.6828,-2.6827,-2.6827,-2.6827,0,-2.6655,-2.6685,-2.6714,-2.6737,-2.6753,-2.6789,-2.6785,-2.6803,-2.6794,-2.6794,-2.6835,-2.6843,-2.6867,-2.6878,-2.687,-2.6927,-2.6916,-2.6897,-2.6865,-2.6923,-2.6945,-2.6954,-2.6832,-2.6831,-2.683,-2.6829,0,0,-2.6751,-2.6767,-2.6778,-2.6788,-2.6803,-2.6825,-2.6859,-2.6883,-2.6898,-2.6913,-2.6941,-2.6977,-2.6959,-2.6971,-2.6964,-2.6988,-2.7044,-2.6965,-2.6965,-2.6979,-2.7106,-2.7121,-2.7132,-2.7033,-2.7035,-2.7037,-2.7105,0,-2.6821,-2.6881,-2.6874,-2.693,-2.6957,-2.6936,-2.6966,-2.6977,-2.6978,-2.7,-2.7001,-2.7026,-2.7001,-2.7008,-2.7031,-2.7032,-2.7069,-2.7027,-2.7058,-2.7059,-2.7055,-2.7143,-2.7159,-2.7223,-2.7114,-2.7115,-2.7116,0,-2.6911,-2.693,-2.699,-2.7,-2.7011,-2.7038,-2.7058,-2.708,-2.7092,-2.7091,-2.7105,-2.7092,-2.7125,-2.7093,-2.7137,-2.7109,-2.7121,-2.7123,-2.7126,-2.7128,-2.7091,-2.7148,-2.7244,-2.7253,-2.713,-2.7129,-2.7128,0,-2.6974,-2.7015,-2.7056,-2.7064,-2.7077,-2.7096,-2.7102,-2.7113,-2.7127,-2.7145,-2.7154,-2.7175,-2.7186,-2.7202,-2.7195,-2.7172,-2.7241,-2.7208,-2.724,-2.7241,-2.7256,-2.7255,-2.7355,-2.7264,-2.7264,-2.7264,-2.7264,0,-2.7053,-2.7091,-2.7084,-2.7109,-2.715,-2.714,-2.718,-2.7184,-2.7193,-2.7218,-2.7201,-2.7224,-2.7214,-2.7236,-2.7231,-2.7268,-2.7274,-2.7273,-2.7271,-2.7275,-2.7275,-2.7282,-2.7278,-2.7267,-2.7266,-2.7265,-2.7265,0,-2.7131,-2.7129,-2.7171,-2.718,-2.7183,-2.7212,-2.7219,-2.7242,-2.7241,-2.7272,-2.7279,-2.7277,-2.7303,-2.7298,-2.7325,-2.7322,-2.7369,-2.7361,-2.7365,-2.7363,-2.7396,-2.7392,-2.7503,-2.7517,-2.7418,-2.7419,-2.742,0,-2.7182,-2.721,-2.7221,-2.7237,-2.7244,-2.727,-2.7284,-2.7275,-2.7291,-2.7306,-2.7327,-2.7351,-2.737,-2.7411,-2.7412,-2.7432,-2.7425,-2.7463,-2.7428,-2.743,-2.7425,-2.7424,-2.7426,-2.7469,-2.7471,-2.7472,-2.7472,0,-2.7272,-2.7269,-2.7291,-2.7312,-2.733,-2.7346,-2.736,-2.7373,-2.7365,-2.7384,-2.7409,-2.7424,-2.7452,-2.7475,-2.7495,-2.75,-2.7485,-2.7483,-2.7492,-2.7495,-2.7496,-2.7496,-2.7383,-2.7481,-2.748,-2.7479,-2.7479,-2.7478,-2.7338,-2.7361,-2.7373,-2.7397,-2.7407,-2.7421,-2.7442,-2.7444,-2.7466,-2.7488,-2.7481,-2.751,-2.7521,-2.7545,-2.7552,-2.7574,-2.756,-2.7573,-2.7576,-2.7579,-2.7583,-2.7493,-2.7578,-2.7577,-2.7577,-2.7577,-2.7577,0,-2.7427,-2.7433,-2.7455,-2.7476,-2.7495,-2.7479,-2.7494,-2.751,-2.7536,-2.7548,-2.7566,-2.7595,-2.7617,-2.762,-2.7641,-2.7658,-2.7651,-2.7663,-2.7662,-2.7663,-2.7594,-2.7585,-2.7668,-2.7668,-2.7668,-2.7668,-2.7668,-2.7668,-2.7475,-2.7514,-2.7512,-2.7555,-2.7561,-2.759,-2.7599,-2.7611,-2.762,-2.7653,-2.7672,-2.7673,-2.7681,-2.7702,-2.7721,-2.7721,-2.7729,-2.7744,-2.7742,-2.7677,-2.7668,-2.766,-2.765,-2.7746,-2.7746,-2.7809,-2.7809,-2.781]}]]